EW5146 Weather Reports


time (UTC)temp
C
wind
direction
speed
KPH
gust
KPH
rain 1hr
cm
rain 24hr
cm
rain mn
cm
humidity
%
barometer
mb
20260509024553 15 318 0.0 8.0 0.00 0.00 0.00 77 1009.4
20260509024048 15 70 1.6 8.0 0.00 0.00 0.00 77 1009.3
20260509023549 15 270 1.6 6.4 0.00 0.00 0.00 77 1009.4
20260509023053 15 270 0.0 1.6 0.00 0.00 0.00 75 1009.0
20260509022551 15 0 0.0 1.6 0.00 0.00 0.00 76 1008.9
20260509022048 15 0 0.0 1.6 0.00 0.00 0.00 75 1008.9
20260509021554 16 0 0.0 1.6 0.00 0.00 0.00 75 1008.8
20260509021050 16 271 0.0 1.6 0.00 0.00 0.00 72 1008.8
20260509020549 16 0 0.0 1.6 0.00 0.00 0.00 71 1008.7
20260509020055 16 0 0.0 4.8 0.00 0.00 0.00 70 1008.7
20260509015550 16 0 0.0 4.8 0.00 0.00 0.00 68 1008.7
20260509015048 16 271 0.0 4.8 0.00 0.00 0.00 66 1008.7
20260509014552 16 0 0.0 6.4 0.00 0.00 0.00 67 1008.8
20260509014048 17 0 0.0 6.4 0.00 0.00 0.00 62 1008.9
20260509013550 17 0 0.0 6.4 0.00 0.00 0.00 62 1008.9
20260509013057 17 261 1.6 4.8 0.00 0.00 0.00 60 1008.8
20260509012548 17 0 0.0 4.8 0.00 0.00 0.00 61 1008.8
20260509012048 17 242 0.0 3.2 0.00 0.00 0.00 62 1008.8
20260509011601 17 313 0.0 8.0 0.00 0.00 0.00 61 1008.7
20260509011052 17 0 0.0 8.0 0.00 0.00 0.00 61 1008.8
20260509010552 17 0 0.0 0.0 0.00 0.00 0.00 63 1008.7
20260509010054 17 0 0.0 3.2 0.00 0.00 0.00 61 1008.7
20260509005549 18 0 0.0 3.2 0.00 0.00 0.00 58 1008.5
20260509005049 18 0 0.0 1.6 0.00 0.00 0.00 55 1008.5
20260509004559 18 0 0.0 3.2 0.00 0.00 0.00 53 1008.3
20260509004049 18 0 0.0 3.2 0.00 0.00 0.00 52 1008.2
20260509003549 18 0 0.0 3.2 0.00 0.00 0.00 52 1008.1
20260509003056 18 313 0.0 3.2 0.00 0.00 0.00 54 1008.1
20260509002545 18 0 0.0 3.2 0.00 0.00 0.00 53 1008.1
20260509002048 18 0 0.0 3.2 0.00 0.00 0.00 52 1008.2
20260509001551 18 320 0.0 4.8 0.00 0.00 0.00 52 1008.1
20260509001049 18 0 0.0 4.8 0.00 0.00 0.00 52 1008.2
20260509000553 18 284 0.0 3.2 0.00 0.00 0.00 52 1008.2
20260509000052 18 0 0.0 3.2 0.00 0.00 0.00 53 1008.3
20260508235548 18 0 0.0 3.2 0.00 0.00 0.00 54 1008.3
20260508235049 18 0 0.0 3.2 0.00 0.00 0.00 53 1008.2
20260508234553 18 0 0.0 3.2 0.00 0.00 0.00 55 1008.1
20260508234049 18 0 0.0 4.8 0.00 0.00 0.00 58 1008.1
20260508233549 18 267 0.0 6.4 0.00 0.00 0.00 54 1008.0
20260508233121 18 0 0.0 6.4 0.00 0.00 0.00 56 1008.1
20260508232548 18 0 1.6 6.4 0.00 0.00 0.00 53 1008.3
20260508232048 18 271 0.0 4.8 0.00 0.00 0.00 51 1008.3
20260508231600 18 261 0.0 4.8 0.00 0.00 0.00 51 1008.2
20260508231049 19 0 0.0 4.8 0.00 0.00 0.00 50 1008.2
20260508230549 19 0 0.0 6.4 0.00 0.00 0.00 49 1008.2
20260508230058 19 203 0.0 9.7 0.00 0.00 0.00 51 1008.0
20260508225545 19 0 0.0 9.7 0.00 0.00 0.00 50 1008.1
20260508225049 19 194 1.6 4.8 0.00 0.00 0.00 47 1007.9
20260508224610 19 333 0.0 4.8 0.00 0.00 0.00 48 1008.1
20260508224048 19 24 1.6 4.8 0.00 0.00 0.00 49 1008.1
20260508223549 20 256 0.0 9.7 0.00 0.00 0.00 48 1008.0
20260508223056 20 0 0.0 9.7 0.00 0.00 0.00 48 1007.9
20260508222548 20 0 0.0 8.0 0.00 0.00 0.00 47 1008.0
20260508222048 20 0 0.0 8.0 0.00 0.00 0.00 48 1007.9
20260508221553 20 0 0.0 8.0 0.00 0.00 0.00 46 1007.8
20260508221049 20 0 1.6 8.0 0.00 0.00 0.00 47 1007.9
20260508220549 20 283 1.6 8.0 0.00 0.00 0.00 46 1007.9
20260508220048 20 244 1.6 6.4 0.00 0.00 0.00 46 1008.0
20260508215548 20 0 1.6 6.4 0.00 0.00 0.00 47 1007.8
20260508215049 20 0 0.0 8.0 0.00 0.00 0.00 46 1007.8
20260508214553 20 203 3.2 8.0 0.00 0.00 0.00 44 1008.0
20260508214049 20 285 1.6 6.4 0.00 0.00 0.00 46 1008.0
20260508213548 20 279 1.6 6.4 0.00 0.00 0.00 45 1008.0
20260508213052 20 291 1.6 6.4 0.00 0.00 0.00 45 1008.1
20260508212548 20 209 3.2 6.4 0.00 0.00 0.00 44 1008.1
20260508212049 20 355 1.6 6.4 0.00 0.00 0.00 45 1008.1
20260508211549 20 309 1.6 12.9 0.00 0.00 0.00 45 1008.2
20260508211051 20 182 1.6 12.9 0.00 0.00 0.00 45 1008.1
20260508210548 20 246 1.6 9.7 0.00 0.00 0.00 49 1008.2
20260508210050 20 206 1.6 9.7 0.00 0.00 0.00 44 1008.4
20260508205546 20 0 0.0 8.0 0.00 0.00 0.00 45 1008.4
20260508205048 20 214 1.6 8.0 0.00 0.00 0.00 46 1008.7
20260508204552 20 22 0.0 8.0 0.00 0.00 0.00 45 1008.8
20260508204051 20 217 1.6 6.4 0.00 0.00 0.00 45 1008.9
20260508203548 20 232 1.6 12.9 0.00 0.00 0.00 45 1009.0
20260508203055 20 0 0.0 16.1 0.00 0.00 0.00 48 1009.0
20260508202549 20 227 1.6 16.1 0.00 0.00 0.00 43 1009.0
20260508202048 20 259 3.2 16.1 0.00 0.00 0.00 44 1009.1
20260508201551 20 217 0.0 4.8 0.00 0.00 0.00 48 1009.1
20260508201048 20 0 0.0 4.8 0.00 0.00 0.00 51 1009.2
20260508200549 20 0 1.6 4.8 0.00 0.00 0.00 50 1009.3
20260508200105 20 0 0.0 9.7 0.00 0.00 0.00 45 1009.1
20260508195548 20 273 0.0 9.7 0.00 0.00 0.00 44 1009.3
20260508195048 20 0 3.2 9.7 0.00 0.00 0.00 45 1009.3
20260508194555 20 250 1.6 8.0 0.00 0.00 0.00 45 1009.4
20260508194049 20 287 0.0 8.0 0.00 0.00 0.00 44 1009.4
20260508193545 20 301 1.6 6.4 0.00 0.00 0.00 44 1009.3
20260508193056 20 333 3.2 6.4 0.00 0.00 0.00 44 1009.5
20260508192548 21 259 0.0 4.8 0.00 0.00 0.00 42 1009.5
20260508192045 21 217 0.0 9.7 0.00 0.00 0.00 42 1009.6
20260508191554 21 338 1.6 14.5 0.00 0.00 0.00 41 1009.6
20260508191048 21 128 3.2 14.5 0.00 0.00 0.00 39 1009.6
20260508190552 21 254 3.2 9.7 0.00 0.00 0.00 41 1009.8
20260508190054 21 213 1.6 16.1 0.00 0.00 0.00 47 1009.9
20260508185549 21 0 3.2 16.1 0.00 0.00 0.00 43 1009.9
20260508185049 21 0 1.6 11.3 0.00 0.00 0.00 45 1010.0
20260508184555 21 244 1.6 16.1 0.00 0.00 0.00 43 1010.0
20260508184048 21 286 3.2 16.1 0.00 0.00 0.00 42 1010.2
20260508183548 21 213 3.2 12.9 0.00 0.00 0.00 42 1010.2
20260508183053 21 238 4.8 11.3 0.00 0.00 0.00 42 1010.2
20260508182547 21 312 3.2 11.3 0.00 0.00 0.00 43 1010.4
20260508182048 21 170 1.6 11.3 0.00 0.00 0.00 46 1010.4
20260508181557 21 297 1.6 14.5 0.00 0.00 0.00 46 1010.5
20260508181049 21 267 1.6 14.5 0.00 0.00 0.00 43 1010.6
20260508180547 20 208 3.2 12.9 0.00 0.00 0.00 44 1010.6
20260508180058 20 209 1.6 14.5 0.00 0.00 0.00 45 1010.7
20260508175549 20 265 3.2 14.5 0.00 0.00 0.00 43 1010.7
20260508175049 20 267 1.6 14.5 0.00 0.00 0.00 44 1010.7
20260508174611 20 213 1.6 14.5 0.00 0.00 0.00 48 1010.8
20260508174045 20 296 3.2 12.9 0.00 0.00 0.00 45 1010.9
20260508173550 20 229 3.2 6.4 0.00 0.00 0.00 46 1011.0
20260508173053 19 259 1.6 12.9 0.00 0.00 0.00 47 1011.1
20260508172548 19 350 1.6 16.1 0.00 0.00 0.00 46 1011.3
20260508172048 19 251 3.2 16.1 0.00 0.00 0.00 45 1011.4
20260508171554 20 206 4.8 17.7 0.00 0.00 0.00 43 1011.5
20260508171048 20 216 3.2 17.7 0.00 0.00 0.00 46 1011.5
20260508170548 20 209 3.2 11.3 0.00 0.00 0.00 48 1011.6
20260508170056 20 259 1.6 11.3 0.00 0.00 0.00 50 1011.9
20260508165548 20 301 3.2 11.3 0.00 0.00 0.00 48 1011.8
20260508165045 20 292 1.6 9.7 0.00 0.00 0.00 48 1012.0
20260508164554 20 222 1.6 9.7 0.00 0.00 0.00 50 1012.1
20260508164048 20 62 1.6 16.1 0.00 0.00 0.00 49 1012.2
20260508163544 19 345 3.2 16.1 0.00 0.00 0.00 52 1012.2
20260508163056 19 0 3.2 16.1 0.00 0.00 0.00 50 1012.4
20260508162548 19 0 1.6 14.5 0.00 0.00 0.00 51 1012.5
20260508162048 19 232 3.2 16.1 0.00 0.00 0.00 48 1012.5
20260508161551 19 333 4.8 16.1 0.00 0.00 0.00 49 1012.7
20260508161051 18 221 1.6 11.3 0.00 0.00 0.00 51 1012.5
20260508160549 18 232 3.2 14.5 0.00 0.00 0.00 50 1012.5
20260508160055 18 216 3.2 14.5 0.00 0.00 0.00 50 1012.6
20260508155549 18 208 3.2 12.9 0.00 0.00 0.00 50 1012.7
20260508155049 18 321 1.6 12.9 0.00 0.00 0.00 51 1012.8
20260508154558 18 337 3.2 12.9 0.00 0.00 0.00 48 1012.8
20260508154049 18 209 3.2 9.7 0.00 0.00 0.00 50 1012.8
20260508153549 17 221 3.2 19.3 0.00 0.00 0.00 50 1013.0
20260508153057 17 0 3.2 19.3 0.00 0.00 0.00 51 1013.2
20260508152548 17 208 3.2 14.5 0.00 0.00 0.00 51 1013.2
20260508152049 17 223 3.2 11.3 0.00 0.00 0.00 52 1013.3
20260508151605 17 265 3.2 11.3 0.00 0.00 0.00 53 1013.2
20260508151050 17 232 3.2 16.1 0.00 0.00 0.00 52 1013.3
20260508150550 17 284 3.2 17.7 0.00 0.00 0.00 52 1013.2
20260508145551 16 211 1.6 12.9 0.00 0.00 0.00 54 1013.5
20260508145051 16 0 3.2 12.9 0.00 0.00 0.00 54 1013.4
20260508144557 16 334 1.6 6.4 0.00 0.00 0.00 53 1013.5
20260508144049 16 274 0.0 6.4 0.00 0.00 0.00 55 1013.4
20260508143549 16 0 3.2 6.4 0.00 0.00 0.00 52 1013.4
20260508143100 16 346 0.0 11.3 0.00 0.00 0.00 55 1013.5
20260508142548 16 281 1.6 11.3 0.00 0.00 0.00 56 1013.6
20260508142049 15 217 1.6 11.3 0.00 0.00 0.00 53 1013.6
20260508141555 15 244 3.2 11.3 0.00 0.00 0.00 53 1013.6
20260508141048 15 194 1.6 11.3 0.00 0.00 0.00 55 1013.7
20260508140548 15 266 1.6 11.3 0.00 0.00 0.00 55 1013.9
20260508140112 15 205 1.6 11.3 0.00 0.00 0.00 56 1013.8
20260508135550 14 233 1.6 11.3 0.00 0.00 0.00 57 1013.8
20260508135050 14 210 3.2 11.3 0.00 0.00 0.00 57 1013.8
20260508134557 13 0 1.6 6.4 0.00 0.00 0.00 58 1013.9
20260508134049 13 211 1.6 6.4 0.00 0.00 0.00 60 1013.8
20260508133552 13 250 0.0 8.0 0.00 0.00 0.00 61 1013.9
20260508133058 13 251 1.6 8.0 0.00 0.00 0.00 61 1013.8
20260508132548 12 238 0.0 8.0 0.00 0.00 0.00 64 1013.7
20260508132049 12 0 0.0 8.0 0.00 0.00 0.00 67 1013.8
20260508131557 12 207 0.0 6.4 0.00 0.00 0.00 66 1013.8
20260508131049 11 0 1.6 6.4 0.00 0.00 0.00 67 1013.8
20260508130548 11 267 0.0 4.8 0.00 0.00 0.00 69 1013.7
20260508130105 11 222 0.0 4.8 0.00 0.00 0.00 70 1013.9
20260508125549 10 0 0.0 4.8 0.00 0.00 0.00 71 1013.8
20260508125048 10 0 0.0 4.8 0.00 0.00 0.00 71 1013.8
20260508124555 10 0 0.0 3.2 0.00 0.00 0.00 73 1013.7
20260508124048 9 0 0.0 3.2 0.00 0.00 0.00 74 1013.7
20260508123550 9 296 0.0 3.2 0.00 0.00 0.00 75 1013.7
20260508123059 8 0 0.0 3.2 0.00 0.00 0.00 75 1013.7
20260508122549 8 0 0.0 3.2 0.00 0.00 0.00 76 1013.7
20260508122049 8 0 0.0 1.6 0.00 0.00 0.00 77 1013.7
20260508121557 8 0 0.0 1.6 0.00 0.00 0.00 76 1013.6
20260508121049 8 0 0.0 1.6 0.00 0.00 0.00 76 1013.8
20260508120549 8 0 0.0 1.6 0.00 0.00 0.00 77 1013.7
20260508120100 8 0 0.0 3.2 0.00 0.00 0.00 78 1013.7
20260508115548 8 0 0.0 3.2 0.00 0.00 0.00 78 1013.8
20260508115048 8 0 0.0 3.2 0.00 0.00 0.00 80 1013.6
20260508114556 8 0 0.0 1.6 0.00 0.00 0.00 80 1013.7
20260508114049 7 0 0.0 1.6 0.00 0.00 0.00 79 1013.6
20260508113549 7 0 0.0 1.6 0.00 0.00 0.00 79 1013.5
20260508113107 7 0 0.0 1.6 0.00 0.00 0.00 80 1013.5
20260508112548 7 0 0.0 0.0 0.00 0.00 0.00 80 1013.4
20260508112048 7 0 0.0 1.6 0.00 0.00 0.00 81 1013.5
20260508111611 7 0 0.0 1.6 0.00 0.00 0.00 82 1013.3
20260508111049 7 0 0.0 1.6 0.00 0.00 0.00 82 1013.2
20260508110550 7 0 0.0 1.6 0.00 0.00 0.00 82 1013.2
20260508110057 7 0 0.0 0.0 0.00 0.00 0.00 84 1013.1
20260508105549 7 0 0.0 0.0 0.00 0.00 0.00 85 1013.2
20260508105049 7 0 0.0 0.0 0.00 0.00 0.00 85 1013.2
20260508104600 7 0 0.0 0.0 0.00 0.00 0.00 84 1013.2
20260508104049 7 0 0.0 0.0 0.00 0.00 0.00 85 1013.3
20260508103549 7 0 0.0 0.0 0.00 0.00 0.00 86 1013.2
20260508103056 6 0 0.0 0.0 0.00 0.00 0.00 86 1013.3
20260508102549 6 0 0.0 0.0 0.00 0.00 0.00 86 1013.1
20260508102051 6 0 0.0 0.0 0.00 0.00 0.00 87 1013.1
20260508101554 6 0 0.0 0.0 0.00 0.00 0.00 87 1013.2
20260508101049 6 0 0.0 0.0 0.00 0.00 0.00 88 1013.2
20260508100552 6 0 0.0 0.0 0.00 0.00 0.00 88 1013.1
20260508100055 6 0 0.0 0.0 0.00 0.00 0.00 87 1013.0
20260508095549 6 0 0.0 0.0 0.00 0.00 0.00 87 1013.1
20260508095049 6 0 0.0 0.0 0.00 0.00 0.00 87 1013.2
20260508094551 6 0 0.0 0.0 0.00 0.00 0.00 87 1013.1
20260508094051 6 0 0.0 0.0 0.00 0.00 0.00 87 1013.1
20260508093552 6 0 0.0 0.0 0.00 0.00 0.00 87 1013.3
20260508093057 6 0 0.0 0.0 0.00 0.00 0.00 87 1013.2
20260508092548 5 0 0.0 0.0 0.00 0.00 0.00 87 1013.1
20260508092052 5 0 0.0 0.0 0.00 0.00 0.00 87 1013.1
20260508091605 5 0 0.0 0.0 0.00 0.00 0.00 87 1013.1
20260508091049 5 0 0.0 0.0 0.00 0.00 0.00 86 1013.2
20260508090549 5 0 0.0 0.0 0.00 0.00 0.00 87 1013.1
20260508090104 5 0 0.0 0.0 0.00 0.00 0.00 86 1013.2
20260508085548 5 0 0.0 0.0 0.00 0.00 0.00 86 1013.1
20260508085048 5 0 0.0 0.0 0.00 0.00 0.00 86 1013.1
20260508084554 5 0 0.0 0.0 0.00 0.00 0.00 86 1013.0
20260508084050 5 0 0.0 0.0 0.00 0.00 0.00 86 1013.1
20260508083550 5 0 0.0 0.0 0.00 0.00 0.00 86 1013.0
20260508083053 5 0 0.0 0.0 0.00 0.00 0.00 85 1013.0
20260508082549 5 0 0.0 0.0 0.00 0.00 0.00 85 1013.1
20260508082049 5 0 0.0 0.0 0.00 0.00 0.00 85 1013.1
20260508081606 5 0 0.0 0.0 0.00 0.00 0.00 85 1012.9
20260508081049 5 0 0.0 0.0 0.00 0.00 0.00 84 1013.0
20260508080549 5 0 0.0 0.0 0.00 0.00 0.00 85 1012.9
20260508080056 5 0 0.0 0.0 0.00 0.00 0.00 84 1013.0
20260508075549 5 0 0.0 0.0 0.00 0.00 0.00 84 1012.9
20260508075048 5 0 0.0 0.0 0.00 0.00 0.00 84 1013.1
20260508074556 6 0 0.0 0.0 0.00 0.00 0.00 84 1013.1
20260508074051 6 0 0.0 0.0 0.00 0.00 0.00 84 1012.9
20260508073551 6 0 0.0 0.0 0.00 0.00 0.00 84 1012.8
20260508073106 6 0 0.0 0.0 0.00 0.00 0.00 84 1012.9
20260508072549 6 0 0.0 0.0 0.00 0.00 0.00 84 1013.1
20260508072048 6 0 0.0 0.0 0.00 0.00 0.00 84 1013.0
20260508071624 6 0 0.0 0.0 0.00 0.00 0.00 84 1013.1
20260508071049 6 0 0.0 0.0 0.00 0.00 0.00 84 1013.0
20260508070549 6 0 0.0 0.0 0.00 0.00 0.00 84 1013.0
20260508065551 6 0 0.0 0.0 0.00 0.00 0.00 84 1013.1
20260508065049 6 0 0.0 0.0 0.00 0.00 0.00 84 1013.1
20260508064559 6 0 0.0 0.0 0.00 0.00 0.00 84 1013.3
20260508064049 6 0 0.0 0.0 0.00 0.00 0.00 84 1013.4
20260508063549 6 0 0.0 0.0 0.00 0.00 0.00 84 1013.5
20260508063056 6 0 0.0 0.0 0.00 0.00 0.00 84 1013.6
20260508062548 6 0 0.0 0.0 0.00 0.00 0.00 84 1013.6
20260508062049 6 0 0.0 0.0 0.00 0.00 0.00 84 1013.6
20260508061556 6 0 0.0 0.0 0.00 0.00 0.00 84 1013.6
20260508061049 6 0 0.0 0.0 0.00 0.00 0.00 83 1013.8
20260508060548 6 0 0.0 0.0 0.00 0.00 0.00 83 1013.7
20260508060055 6 0 0.0 0.0 0.00 0.00 0.00 83 1013.6
20260508055551 6 0 0.0 0.0 0.00 0.00 0.00 83 1013.5
20260508055049 6 0 0.0 0.0 0.00 0.00 0.00 82 1013.7
20260508054608 6 0 0.0 0.0 0.00 0.00 0.00 82 1013.7
20260508054051 6 0 0.0 0.0 0.00 0.00 0.00 81 1013.6
20260508053549 6 0 0.0 0.0 0.00 0.00 0.00 81 1013.7
20260508053053 6 0 0.0 0.0 0.00 0.00 0.00 81 1013.7
20260508052549 6 0 0.0 0.0 0.00 0.00 0.00 81 1013.7
20260508052048 6 0 0.0 0.0 0.00 0.00 0.00 80 1013.8
20260508051556 6 0 0.0 0.0 0.00 0.00 0.00 80 1013.6
20260508051049 6 0 0.0 0.0 0.00 0.00 0.00 80 1013.6
20260508050549 6 0 0.0 0.0 0.00 0.00 0.00 80 1013.5
20260508050057 6 0 0.0 0.0 0.00 0.00 0.00 80 1013.5
20260508045548 6 0 0.0 0.0 0.00 0.00 0.00 80 1013.5
20260508045048 6 0 0.0 0.0 0.00 0.00 0.00 80 1013.5
20260508044558 6 0 0.0 0.0 0.00 0.00 0.00 80 1013.7
20260508044050 7 0 0.0 0.0 0.00 0.00 0.00 80 1013.6
20260508043549 7 0 0.0 0.0 0.00 0.00 0.00 80 1013.4
20260508043053 7 0 0.0 0.0 0.00 0.00 0.00 79 1013.5
20260508042549 7 0 0.0 0.0 0.00 0.00 0.00 79 1013.5
20260508042049 7 0 0.0 0.0 0.00 0.00 0.00 80 1013.5
20260508041554 7 0 0.0 0.0 0.00 0.00 0.00 79 1013.5
20260508041049 7 0 0.0 0.0 0.00 0.00 0.00 79 1013.5
20260508040549 7 0 0.0 0.0 0.00 0.00 0.00 79 1013.3
20260508040059 7 0 0.0 0.0 0.00 0.00 0.00 79 1013.3
20260508035546 7 0 0.0 0.0 0.00 0.00 0.00 79 1013.4
20260508035049 7 0 0.0 0.0 0.00 0.00 0.00 79 1013.4
20260508034551 7 0 0.0 0.0 0.00 0.00 0.00 78 1013.3
20260508034049 7 0 0.0 0.0 0.00 0.00 0.00 78 1013.4
20260508033548 7 0 0.0 0.0 0.00 0.00 0.00 78 1013.5
20260508033111 7 0 0.0 0.0 0.00 0.00 0.00 77 1013.5
20260508032549 7 0 0.0 0.0 0.00 0.00 0.00 77 1013.5
20260508032051 7 0 0.0 0.0 0.00 0.00 0.00 76 1013.6
20260508031552 7 0 0.0 0.0 0.00 0.00 0.00 76 1013.4
20260508031051 7 0 0.0 0.0 0.00 0.00 0.00 76 1013.4
20260508030549 7 0 0.0 0.0 0.00 0.00 0.00 76 1013.4
20260508030106 7 0 0.0 0.0 0.00 0.00 0.00 75 1013.4
20260508025548 7 0 0.0 0.0 0.00 0.00 0.00 74 1013.5
20260508025049 8 0 0.0 0.0 0.00 0.00 0.00 75 1013.5